Regional Weather Roundup
Issued by NWS

Home | Current Version | Previous Version | Graphics & Text | Print | Product List | Glossary On
Versions: 1 2 3 4 5 6 7 8 9 10 11 12 13 14 15 16 17 18 19 20 21 22 23 24 25 26 27 28 29 30 31 32 33 34 35 36 37 38 39 40 41 42 43 44 45 46 47 48 49 50
000
ASUS43 KDTX 022101
RWRMI
MICHIGAN HOURLY REGIONAL WEATHER ROUNDUP
NATIONAL WEATHER SERVICE DETROIT/PONTIAC MI
500 PM EDT TUE JUN 02 2015

NOTE: "FAIR" INDICATES FEW OR NO CLOUDS BELOW 12,000 FEET WITH NO
SIGNIFICANT WEATHER AND/OR OBSTRUCTION TO VISIBILITY.

MIZ047>049-052>055-059>063-066>070-074>076-081>083-022200-
SOUTHEAST LOWER MICHIGAN

CITY           SKY/WX    TMP DP  RH WIND       PRES   REMARKS
ADRIAN         SUNNY     66  49  54 SE12G21   30.14F
ALMA           SUNNY     70  43  38 SE3       30.14F
ANN ARBOR      SUNNY     69  48  47 E7        30.13F
BAD AXE        SUNNY     66  34  30 SE5       30.16F
CARO           MOSUNNY   69  44  41 SE6       30.14S HAZE
DETROIT CITY   SUNNY     69  50  50 SE10      30.14F
DETROIT        MOSUNNY   69  52  54 SE12      30.14F
FLINT          MOSUNNY   73  43  33 S6        30.13F
GROSSE ILE     SUNNY     64  55  72 S8        30.13F
HILLSDALE      MOSUNNY   68  49  49 SE10      30.13F
HOWELL         MOSUNNY   71  42  34 SE7       30.13F

CITY           SKY/WX    TMP DP  RH WIND       PRES   REMARKS
JACKSON        MOSUNNY   70  49  47 VRB6      30.12F
LAMBERTVILLE   SUNNY     66  45  45 SE12G17   30.15F
LANSING        SUNNY     70  47  43 SE13      30.13F
LAPEER         FAIR      69  37  31 E5        30.15S
MASON          SUNNY     68  45  43 SE6       30.13S
MONROE         SUNNY     66  45  45 E12G17    30.13F
MT. CLEMENS    MOSUNNY   68  50  52 S9        30.12F
PONTIAC        PTSUNNY   70  41  34 SE8       30.12F
PORT HOPE        N/A     57  46  66 CALM      30.16F
PORT HURON     SUNNY     68  45  42 NE6       30.15F
TRI CITIES     MOSUNNY   69  46  43 NE12      30.15F
MIDLAND        FAIR      70  42  36 E3        30.14S
TROY           SUNNY     70  40  32 SE8       30.15F
SAGINAW HB     MOSUNNY   68  43  40 N9        30.14S
$$
MIZ043>046-050>051-056>058-064>065-071>073-077>080-022200-
SOUTHWEST LOWER MICHIGAN

CITY           SKY/WX    TMP DP  RH WIND       PRES   REMARKS
BATTLE CREEK   SUNNY     72  48  42 NE3       30.13F
BENTON HARBOR  SUNNY     62  46  55 VRB5      30.12F
BIG RAPIDS     MOSUNNY   71  35  26 S3        30.12F
COLDWATER      SUNNY     68  49  49 CALM      30.12F
FREMONT        FAIR      71  31  22 E3        30.12F
HOLLAND        SUNNY     68  50  52 W8        30.12F
GRAND RAPIDS   MOSUNNY   70  45  40 E7        30.13F
IONIA          FAIR      70  47  44 SE7       30.12F
KALAMAZOO      MOSUNNY   72  48  42 CALM      30.11F
LUDINGTON      SUNNY     61  46  57 W5        30.15S
MARSHALL       SUNNY     71  49  44 SE3       30.11F
MOUNT PLEASANT SUNNY     71  39  32 CALM      30.14S
MUSKEGON       MOSUNNY   66  45  46 W8        30.13F
SOUTH HAVEN    SUNNY     64  45  51 NW8       30.12F
$$
MIZ016>042-022200-
NORTHERN LOWER MICHIGAN

CITY           SKY/WX    TMP DP  RH WIND       PRES   REMARKS
ALPENA         SUNNY     64  34  32 E13       30.17S
BEAVER ISLAND  SUNNY     63  32  30 W7        30.14F
BELLAIRE       SUNNY     73  33  22 S3        30.10F
CADILLAC       SUNNY     71  33  25 S7        30.13S
CHARLEVOIX     SUNNY     60  33  36 NW7       30.17S
FRANKFORT      SUNNY     66  27  23 W6        30.13F
GAYLORD        MOSUNNY   72  31  22 SW5       30.12F
GRAYLING       MOSUNNY   71  33  24 SE5       30.14F
HARBOR SPRINGS SUNNY     57  40  52 SW6       30.13F
HOUGHTON LAKE  MOSUNNY   70  36  28 VRB6      30.14F
MANISTEE       SUNNY     63  25  23 NW9       30.15S
OSCODA         SUNNY     66  35  31 E8        30.17F
PELLSTON       MOSUNNY   70  38  31 VRB3      30.13F
ROGERS CITY    MOSUNNY   66  39  36 E12       30.14F
TRAVERSE CITY  PTSUNNY   61  36  39 N10       30.11F
$$
MIZ007>008-015-022200-
EASTERN UPPER MICHIGAN

CITY           SKY/WX    TMP DP  RH WIND       PRES   REMARKS
KINROSS        SUNNY     70  30  23 SW8       30.13S
MACKINAC ISLAN MOSUNNY   63  35  35 CALM      30.14F
NEWBERRY       SUNNY     66  38  35 S12       30.12S
S. S. MARIE    SUNNY     70  35  27 SE9G17    30.11F
$$
MIZ004>006-011>014-085-022200-
CENTRAL UPPER MICHIGAN

CITY           SKY/WX    TMP DP  RH WIND       PRES   REMARKS
MANISTIQUE     SUNNY     56  37  48 S7        30.14S
ESCANABA       MOSUNNY   63  43  48 S13       30.10F
MENOMINEE      PTSUNNY   66  43  42 SE13      30.10F
SAWYER-GWINN   SUNNY     72  34  25 SW15G21   30.06F
$$
MIZ001>003-009>011-084-022200-
WESTERN UPPER MICHIGAN

CITY           SKY/WX    TMP DP  RH WIND       PRES   REMARKS
IRON MOUNTAIN  MOSUNNY   72  33  24 S12G18    30.06F
HOUGHTON       MOSUNNY   68  33  27 E8        30.01F
COPPER HARBOR    N/A     69  30  23 SE7       30.02F
IRONWOOD       SUNNY     73  41  31 SW9G20    29.96F
$$

ABBREVIATIONS USED IN REMARKS
   TC - TEMPERATURE IN CELSIUS
  WCI - WIND CHILL INDEX
   HX - HEAT INDEX
  VSB - VISIBILITY




USA.gov is the U.S. government's official web portal to all federal, state and local government web resources and services.